This is the latest recevied weather packets stored in our database for station/object KE0PRS. If no packets are shown the sender has not sent any weather packets the latest 10 day(s).
| Time | Temp. | Humidity | Pressure | Rain* | Wind** | Luminosity | Snow |
|---|---|---|---|---|---|---|---|
| 1788044238 | 37.78° C | 30% | 1010.8 hPa | 0 mm | - | 259 W/m² | - |
| 1788043934 | 37.78° C | 30% | 1010.9 hPa | 0 mm | - | 275 W/m² | - |
| 1788043629 | 37.78° C | 30% | 1011 hPa | 0 mm | - | 293 W/m² | - |
| 1788043325 | 37.78° C | 30% | 1010.8 hPa | 0 mm | - | 309 W/m² | - |
| 1788043025 | 37.78° C | 30% | 1010.9 hPa | 0 mm | - | 327 W/m² | - |
| 1788042721 | 38.33° C | 30% | 1011 hPa | 0 mm | - | 344 W/m² | - |
| 1788042419 | 38.33° C | 30% | 1010.8 hPa | 0 mm | - | 361 W/m² | - |
| 1788042114 | 38.33° C | 29% | 1010.9 hPa | 0 mm | - | 377 W/m² | - |
| 1788041809 | 38.33° C | 30% | 1010.8 hPa | 0 mm | - | 395 W/m² | - |
| 1788041504 | 38.33° C | 30% | 1010.9 hPa | 0 mm | - | 409 W/m² | - |
| 1788041199 | 38.33° C | 30% | 1010.9 hPa | 0 mm | - | 425 W/m² | - |
| 1788040898 | 38.33° C | 31% | 1011 hPa | 0 mm | - | 433 W/m² | - |
| 1788040597 | 38.33° C | 30% | 1010.9 hPa | 0 mm | - | 452 W/m² | - |
| 1788040293 | 38.33° C | 29% | 1010.9 hPa | 0 mm | - | 458 W/m² | - |
| 1788039992 | 38.33° C | 31% | 1011.1 hPa | 0 mm | - | 479 W/m² | - |
| 1788039687 | 38.33° C | 30% | 1010.9 hPa | 0 mm | - | 493 W/m² | - |
| 1788039383 | 38.33° C | 29% | 1011.1 hPa | 0 mm | - | 509 W/m² | - |
| 1788039079 | 38.33° C | 31% | 1011.1 hPa | 0 mm | - | 516 W/m² | - |
| 1788038774 | 38.33° C | 30% | 1011.4 hPa | 0 mm | - | 538 W/m² | - |
| 1788038474 | 38.33° C | 29% | 1011.5 hPa | 0 mm | - | 547 W/m² | - |
| 1788038173 | 38.33° C | 29% | 1011.6 hPa | 0 mm | - | 560 W/m² | - |
| 1788037873 | 38.33° C | 29% | 1011.6 hPa | 0 mm | - | 569 W/m² | - |
| 1788037568 | 38.33° C | 29% | 1011.6 hPa | 0 mm | - | 589 W/m² | - |
| 1788037263 | 38.33° C | 30% | 1011.7 hPa | 0 mm | - | 595 W/m² | - |
| 1788036962 | 38.33° C | 29% | 1011.7 hPa | 0 mm | - | 609 W/m² | - |
* Rain latest hour (hover to see other rain measurements)
** Current wind speed in m/s (hover to see current wind gust speed)